Weather History for Nacogdoches, TX

Change the Weather History Date:

Thursday, October 4, 2012

  Actual Average Record
Temperature  
Mean Temperature 70 °F -  
Max Temperature 84 °F 78 °F 93 °F (2002)
Min Temperature 55 °F 57 °F 41 °F (2010)
Cooling Degree Days 4    
Growing Degree Days 20 (Base 50)    
Moisture  
Dew Point 60 °F    
Average Humidity 72    
Maximum Humidity 88    
Minimum Humidity 51    
Precipitation  
Precipitation 0.00 in - - ()
Sea Level Pressure  
Sea Level Pressure 30.13 in    
Wind  
Wind Speed 3 mph (SE)    
Max Wind Speed 13 mph    
Max Gust Speed 18 mph    
Visibility 9 miles    
Events      
Averages and records for this station are not official NWS values.
T = Trace of Precipitation, MM = Missing Value Source: NWS Daily Summary

Daily Weather History Graph

Daily Weather History Graph

Search for Another Location

Airport:

Trip Planner

Search our weather history database for the weather conditions in past years. The results will help you decide how hot, cold, wet, or windy it might be!

Date:

Astronomy

Oct. 04, 2012 Rise Set
Actual Time 7:14 AM CDT 6:59 PM CDT
Civil Twilight 6:50 AM CDT 7:23 PM CDT
Nautical Twilight 6:22 AM CDT 7:51 PM CDT
Astronomical Twilight 5:54 AM CDT 8:20 PM CDT
Moon 9:52 PM CDT (10/4) 11:16 AM CDT (10/4)
Length of Visible Light 12h 33m
Length of Day
11h 44m
Waning Gibbous, 82% of the Moon is Illuminated
Oct 4
Waning Gibbous
Oct 8
Last Quarter
Oct 15
New
Oct 21
First Quarter
Oct 29
Full

Hourly Weather History & Observations

Time (CDT) Temp. Heat Index Dew Point Humidity Pressure Visibility Wind Dir Wind Speed Gust Speed Precip Events Conditions
12:15 AM 60.8 °F - 55.4 °F 82% 30.08 in 10.0 mi Calm Calm - N/A   Clear
12:35 AM 59.0 °F - 55.4 °F 88% 30.09 in 10.0 mi Calm Calm - N/A   Clear
12:55 AM 57.2 °F - 53.6 °F 88% 30.09 in 10.0 mi Calm Calm - N/A   Clear
1:15 AM 59.0 °F - 53.6 °F 82% 30.09 in 10.0 mi ESE 3.5 mph - N/A   Clear
1:35 AM 59.0 °F - 53.6 °F 82% 30.09 in 10.0 mi Calm Calm - N/A   Clear
1:55 AM 57.2 °F - 53.6 °F 88% 30.09 in 9.0 mi ESE 4.6 mph - N/A   Clear
2:15 AM 59.0 °F - 53.6 °F 82% 30.10 in 8.0 mi Calm Calm - N/A   Clear
2:35 AM 57.2 °F - 53.6 °F 88% 30.10 in 9.0 mi Calm Calm - N/A   Clear
2:55 AM 57.2 °F - 53.6 °F 88% 30.10 in 8.0 mi Calm Calm - N/A   Clear
3:15 AM 57.2 °F - 53.6 °F 88% 30.09 in 10.0 mi Calm Calm - N/A   Clear
3:35 AM 57.2 °F - 53.6 °F 88% 30.09 in 9.0 mi Calm Calm - N/A   Clear
3:55 AM 55.4 °F - 51.8 °F 88% 30.10 in 7.0 mi Calm Calm - N/A   Clear
4:15 AM 55.4 °F - 51.8 °F 88% 30.10 in 7.0 mi Calm Calm - N/A   Clear
4:35 AM 55.4 °F - 51.8 °F 88% 30.10 in 8.0 mi Calm Calm - N/A   Clear
4:55 AM 55.4 °F - 51.8 °F 88% 30.12 in 8.0 mi Calm Calm - N/A   Clear
5:15 AM 55.4 °F - 51.8 °F 88% 30.12 in 8.0 mi Calm Calm - N/A   Clear
5:35 AM 55.4 °F - 51.8 °F 88% 30.12 in 7.0 mi Calm Calm - N/A   Clear
5:55 AM 55.4 °F - 51.8 °F 88% 30.13 in 7.0 mi Calm Calm - N/A   Clear
6:15 AM 55.4 °F - 51.8 °F 88% 30.13 in 10.0 mi Calm Calm - N/A   Clear
6:35 AM 55.4 °F - 51.8 °F 88% 30.13 in 7.0 mi Calm Calm - N/A   Clear
6:55 AM 55.4 °F - 51.8 °F 88% 30.13 in 9.0 mi Calm Calm - N/A   Clear
7:15 AM 55.4 °F - 51.8 °F 88% 30.14 in 5.0 mi Calm Calm - N/A   Clear
7:35 AM 55.4 °F - 51.8 °F 88% 30.14 in 5.0 mi Calm Calm - N/A   Clear
7:55 AM 55.4 °F - 51.8 °F 88% 30.15 in 8.0 mi Calm Calm - N/A   Clear
8:15 AM 57.2 °F - 53.6 °F 88% 30.15 in 8.0 mi Calm Calm - N/A   Clear
8:35 AM 60.8 °F - 57.2 °F 88% 30.15 in 6.0 mi Calm Calm - N/A   Clear
8:55 AM 66.2 °F - 62.6 °F 88% 30.16 in 10.0 mi SE 4.6 mph - N/A   Clear
9:15 AM 68.0 °F - 62.6 °F 83% 30.17 in 10.0 mi SSE 4.6 mph - N/A   Clear
9:35 AM 69.8 °F - 62.6 °F 78% 30.18 in 10.0 mi SSE 4.6 mph - N/A   Clear
9:55 AM 71.6 °F - 64.4 °F 78% 30.18 in 10.0 mi SSE 8.1 mph - N/A   Clear
10:15 AM 73.4 °F - 64.4 °F 73% 30.18 in 10.0 mi SSE 6.9 mph - N/A   Clear
10:35 AM 75.2 °F - 64.4 °F 69% 30.18 in 10.0 mi SSE 10.4 mph - N/A   Clear
10:55 AM 75.2 °F - 64.4 °F 69% 30.18 in 10.0 mi SSE 9.2 mph - N/A   Clear
11:15 AM 77.0 °F - 64.4 °F 65% 30.18 in 10.0 mi South 8.1 mph - N/A   Clear
11:35 AM 78.8 °F - 62.6 °F 57% 30.18 in 10.0 mi SSE 12.7 mph 18.4 mph N/A   Clear
11:55 AM 78.8 °F - 64.4 °F 61% 30.18 in 10.0 mi SE 10.4 mph - N/A   Clear
12:15 PM 80.6 °F 82.3 °F 64.4 °F 58% 30.18 in 10.0 mi SSE 8.1 mph - N/A   Clear
12:35 PM 80.6 °F 82.3 °F 64.4 °F 58% 30.18 in 10.0 mi SE 9.2 mph 17.3 mph N/A   Clear
12:55 PM 82.4 °F 83.4 °F 62.6 °F 51% 30.16 in 10.0 mi South 9.2 mph - N/A   Clear
1:35 PM 82.4 °F 83.9 °F 64.4 °F 54% 30.15 in 10.0 mi SSE 6.9 mph - N/A   Clear
1:55 PM 82.4 °F 83.9 °F 64.4 °F 54% 30.14 in 10.0 mi SE 10.4 mph - N/A   Clear
2:15 PM 82.4 °F 83.9 °F 64.4 °F 54% 30.14 in 10.0 mi SE 6.9 mph - N/A   Clear
2:35 PM 84.2 °F 85.6 °F 64.4 °F 51% 30.13 in 10.0 mi ESE 9.2 mph - N/A   Clear
2:55 PM 84.2 °F 85.6 °F 64.4 °F 51% 30.13 in 10.0 mi ESE 8.1 mph - N/A   Clear
3:15 PM 84.2 °F 85.6 °F 64.4 °F 51% 30.13 in 10.0 mi ESE 9.2 mph - N/A   Partly Cloudy
3:35 PM 84.2 °F 85.6 °F 64.4 °F 51% 30.12 in 10.0 mi SSE 10.4 mph - N/A   Clear
3:55 PM 84.2 °F 85.6 °F 64.4 °F 51% 30.12 in 10.0 mi SSE 10.4 mph 16.1 mph N/A   Clear
4:15 PM 84.2 °F 85.6 °F 64.4 °F 51% 30.12 in 10.0 mi SE 6.9 mph - N/A   Clear
4:35 PM 84.2 °F 85.6 °F 64.4 °F 51% 30.11 in 10.0 mi SSE 10.4 mph - N/A   Clear
4:55 PM 82.4 °F 83.9 °F 64.4 °F 54% 30.11 in 10.0 mi SSE 5.8 mph - N/A   Clear
5:15 PM 82.4 °F 83.9 °F 64.4 °F 54% 30.11 in 10.0 mi SSE 8.1 mph - N/A   Clear
5:35 PM 82.4 °F 83.9 °F 64.4 °F 54% 30.10 in 10.0 mi SE 6.9 mph - N/A   Clear
5:55 PM 82.4 °F 83.9 °F 64.4 °F 54% 30.10 in 10.0 mi SSE 8.1 mph - N/A   Clear
6:15 PM 80.6 °F 82.3 °F 64.4 °F 58% 30.10 in 10.0 mi SE 6.9 mph - N/A   Clear
6:35 PM 80.6 °F 82.3 °F 64.4 °F 58% 30.10 in 10.0 mi SSE 5.8 mph - N/A   Clear
6:55 PM 78.8 °F - 64.4 °F 61% 30.10 in 10.0 mi SE 4.6 mph - N/A   Clear
7:15 PM 77.0 °F - 62.6 °F 61% 30.11 in 10.0 mi SSE 3.5 mph - N/A   Clear
7:35 PM 75.2 °F - 64.4 °F 69% 30.11 in 10.0 mi SE 4.6 mph - N/A   Clear
7:55 PM 73.4 °F - 64.4 °F 73% 30.11 in 10.0 mi SE 4.6 mph - N/A   Clear
8:15 PM 73.4 °F - 62.6 °F 69% 30.11 in 10.0 mi SSE 4.6 mph - N/A   Clear
8:35 PM 73.4 °F - 62.6 °F 69% 30.12 in 10.0 mi SE 4.6 mph - N/A   Clear
8:55 PM 73.4 °F - 62.6 °F 69% 30.12 in 10.0 mi SSE 5.8 mph - N/A   Clear
9:15 PM 73.4 °F - 62.6 °F 69% 30.12 in 10.0 mi SSE 4.6 mph - N/A   Clear
9:35 PM 73.4 °F - 62.6 °F 69% 30.13 in 0.8 mi South 4.6 mph - N/A   Unknown
9:55 PM 73.4 °F - 62.6 °F 69% 30.13 in 10.0 mi South 4.6 mph - N/A   Clear
10:15 PM 71.6 °F - 60.8 °F 69% 30.13 in 10.0 mi Calm Calm - N/A   Clear
10:35 PM 68.0 °F - 62.6 °F 83% 30.13 in 10.0 mi SE 4.6 mph - N/A   Clear
10:55 PM 69.8 °F - 60.8 °F 73% 30.13 in 10.0 mi SSE 4.6 mph - N/A   Clear
11:15 PM 69.8 °F - 60.8 °F 73% 30.13 in 10.0 mi Calm Calm - N/A   Clear
11:35 PM 66.2 °F - 60.8 °F 83% 30.13 in 10.0 mi Calm Calm - N/A   Clear
11:55 PM 66.2 °F - 60.8 °F 83% 30.13 in 10.0 mi Calm Calm - N/A   Clear